Regional Weather Roundup
Issued by NWS Bismarck, ND

Home | Current Version | Previous Version | Text Only | Print | Product List | Glossary On
Versions: 1 2 3 4 5 6 7 8 9 10 11 12 13 14 15 16 17 18 19 20 21 22 23 24 25 26 27 28 29 30 31 32 33 34 35 36 37 38 39 40 41 42 43 44 45 46 47 48 49 50
000
ASUS43 KBIS 180702
RWRBIS

NWR BROADCAST TEXT
NATIONAL WEATHER SERVICE BISMARCK ND
100 AM CST SAT NOV 18 2017

NOTE: "FAIR" INDICATES FEW OR NO CLOUDS BELOW 12,000 FEET WITH NO
SIGNIFICANT WEATHER AND/OR OBSTRUCTIONS TO VISIBILITY.


CITY           SKY/WX    TMP DP  RH WIND       PRES   REMARKS
WILLISTON      PTCLDY    12   6  77 N8        29.96R WCI   0
MINOT          CLOUDY    16   8  71 W15       29.87R WCI   1
MINOT AFB      NOT AVBL
BISMARCK       CLEAR     25  23  92 NE3       29.82R
DICKINSON      CLEAR     27  22  81 W14       29.82R WCI  16
GARRISON         N/A     16  12  84 N14       29.85R WCI   2
HETTINGER ARPT CLEAR     23  19  85 NW10      29.87R WCI  12
JAMESTOWN      CLOUDY    17  13  84 W3        29.81R
CARRINGTON     FAIR      14  12  92 NW7       29.84R WCI   4
HAZEN          FAIR      19  18  93 CALM      29.87R
LINTON           N/A     21  16  79 SW7       29.81S WCI  13
MANDAN         FAIR      23  23 100 NW7       29.81R WCI  15
OAKES            N/A     21  18  86 N6        29.83R WCI  14
RUGBY          PTSUNNY   12  10  92 NW7       29.84R WCI   2
STANLEY        FAIR      10   7  85 NW5       29.89R WCI   2
TIOGA          FAIR       9   7  92 NW7       29.90R WCI  -3
WATFORD CITY   FAIR      12   9  85 W7        29.92R WCI   2
$$

CITY           SKY/WX    TMP DP  RH WIND       PRES   REMARKS
GRAND FORKS    CLOUDY    13  11  92 W3        29.83R
GRAND FORKS AF CLOUDY    13   9  84 NW5       29.82R WCI   6
DEVILS LAKE    CLEAR     12   9  87 NW9       29.82R WCI   0
FARGO          CLOUDY    21  17  84 NW9       29.83R WCI  11
CANDO          PTSUNNY   10  10 100 N6        29.84S WCI   1
CAVALIER       FAIR      14  10  85 W8        29.82S WCI   3
GRAFTON        FAIR      14  10  85 NW7       29.85S WCI   4
GWINNER          N/A     21  18  86 NW6       29.83R WCI  14
LANGDON        FAIR      14  12  92 W8        29.80R WCI   3
ROLLA          PTSUNNY   12   9  85 NW10      29.82R WCI  -1
WALHALLA       FAIR      18  16  93 W8        29.83R WCI   7
$$

CITY           SKY/WX    TMP DP  RH WIND       PRES   REMARKS
ABERDEEN       CLOUDY    26  20  77 N3        29.83R
MOBRIDGE       CLOUDY    31  26  82 CALM      29.79R
BUFFALO          N/A     26  22  84 W13       29.83R WCI  15
RAPID CITY     CLEAR     34  25  69 N13       29.89R
GLASGOW        PTCLDY    13   8  81 W5        29.99R WCI   5
SIDNEY         MOCLDY    14   8  77 N9        29.96R WCI   2
WOLF POINT     MOCLDY    16   7  67 CALM      30.00R
GLENDIVE       CLEAR     25  22  88 N12       29.92R WCI  14
MILES CITY     PTCLDY    35  23  61 W16       29.95R
BAKER          CLOUDY    32  27  81 W12       29.90R
$$

CITY           SKY/WX    TMP DP  RH WIND       PRES   REMARKS
BILLINGS       CLEAR     33  17  51 NW16      30.03R
GREAT FALLS    PTCLDY    29  17  61 SW14      30.00R WCI  18
$$




USA.gov is the U.S. government's official web portal to all federal, state and local government web resources and services.